Location: Eschertshofen
(49.3064°N, 11.5756°E)
Time: 14:37:00
(UTC+00:00)

Meteor 1-24 Rocket - Pass Details

Date: 18 September 2020
Orbit: 790 x 927 km, 81.2° (Epoch: 27 October)

Event Time Altitude Azimuth Distance (km) Brightness Sun altitude
Rises 19:05:09 0° 352° (N) 3,341 7.3 -17.5°
Reaches altitude 10° 19:07:40 10° 0° (N) 2,422 6.4 -17.9°
Maximum altitude 19:12:50 40° 70° (ENE) 1,210 4.2 -18.6°
Enters shadow 19:14:21 34° 107° (ESE) 1,369 4.2 -18.9°
